Change the Weather History Date:

Tuesday, January 7, 2014

  Actual Average Record
Temperature  
Mean Temperature 23 °F 24 °F  
Max Temperature 45 °F 36 °F 63 °F (2003)
Min Temperature 0 °F 12 °F -8 °F (2004)
Degree Days  
Heating Degree Days 42 41  
Month to date heating degree days 354 287  
Since 1 July heating degree days 3007 3011  
Cooling Degree Days 0 0  
Month to date cooling degree days 0 0  
Year to date cooling degree days 0 0  
Moisture  
Dew Point 9 °F    
Average Humidity 57    
Maximum Humidity 79    
Minimum Humidity 34    
Precipitation  
Precipitation T in 0.01 in 0.20 in (1912)
Month to date precipitation 0.06 0.07  
Year to date precipitation 0.06 0.07  
Sea Level Pressure  
Sea Level Pressure 30.14 in    
Wind  
Wind Speed 6 mph (NNE)    
Max Wind Speed 20 mph    
Max Gust Speed 23 mph    
Visibility 9 miles    
Events Rain , Snow    
T = Trace of Precipitation, MM = Missing Value Source: NWS Daily Summary

Daily Weather History Graph

Daily Weather History Graph

Search for Another Location

Airport or City:

Trip Planner

Search our weather history database for the weather conditions in past years. The results will help you decide how hot, cold, wet, or windy it might be!

Date:

Astronomy

Jan. 07, 2014 Rise Set
Actual Time 8:02 AM CST 5:22 PM CST
Civil Twilight 7:31 AM CST 5:53 PM CST
Nautical Twilight 6:56 AM CST 6:27 PM CST
Astronomical Twilight 6:23 AM CST 7:01 PM CST
Moon 11:46 AM CST (1/7) 12:01 AM CST (1/7)
Length of Visible Light 10h 21m
Length of Day
9h 19m
Waxing Crescent, 46% of the Moon is Illuminated
Jan 7
Waxing Crescent
Jan 7
First Quarter
Jan 15
Full
Jan 23
Last Quarter
Jan 30
New

Hourly Weather History & Observations

Time (CST) Temp. Windchill Dew Point Humidity Pressure Visibility Wind Dir Wind Speed Gust Speed Precip Events Conditions
12:53 AM 3.9 °F -6.9 °F -4.0 °F 70% 30.19 in 10.0 mi ESE 5.8 mph - N/A   Clear
1:53 AM 3.9 °F -6.9 °F -4.0 °F 70% 30.16 in 10.0 mi ESE 5.8 mph - N/A   Clear
2:53 AM 3.0 °F - -4.0 °F 73% 30.13 in 10.0 mi Calm Calm - N/A   Partly Cloudy
3:53 AM 1.9 °F - -4.0 °F 76% 30.10 in 10.0 mi Calm Calm - N/A   Clear
4:53 AM 1.9 °F - -4.0 °F 76% 30.09 in 10.0 mi Calm Calm - N/A   Clear
5:53 AM -0.0 °F - -5.1 °F 79% 30.09 in 10.0 mi Calm Calm - N/A   Partly Cloudy
6:53 AM -0.0 °F - -5.1 °F 79% 30.10 in 10.0 mi Calm Calm - N/A   Clear
7:53 AM 1.0 °F -6.7 °F -4.0 °F 79% 30.12 in 10.0 mi NNW 3.5 mph - N/A   Clear
8:53 AM 7.0 °F 0.1 °F -0.9 °F 70% 30.13 in 10.0 mi NW 3.5 mph - N/A   Clear
9:53 AM 19.9 °F 14.9 °F 8.1 °F 60% 30.13 in 10.0 mi North 3.5 mph - N/A   Clear
10:53 AM 36.0 °F 28.5 °F 15.1 °F 43% 30.11 in 10.0 mi NW 10.4 mph - N/A   Clear
11:53 AM 41.0 °F 34.7 °F 16.0 °F 36% 30.09 in 10.0 mi WNW 10.4 mph - N/A   Clear
12:53 PM 43.0 °F 35.1 °F 19.9 °F 40% 30.06 in 10.0 mi NNW 17.3 mph - 0.00 in Rain Light Rain
1:53 PM 43.0 °F 36.4 °F 18.0 °F 37% 30.05 in 10.0 mi NNW 12.7 mph - 0.00 in Rain Light Rain
2:53 PM 44.1 °F 37.7 °F 18.0 °F 35% 30.07 in 10.0 mi NNW 12.7 mph - 0.00 in   Mostly Cloudy
3:53 PM 41.0 °F 35.2 °F 18.0 °F 40% 30.10 in 10.0 mi North 9.2 mph - N/A   Overcast
4:53 PM 36.0 °F 27.5 °F 18.0 °F 48% 30.13 in 10.0 mi NNE 12.7 mph - N/A   Overcast
5:53 PM 28.9 °F 21.1 °F 16.0 °F 58% 30.18 in 10.0 mi NNE 8.1 mph - N/A   Overcast
6:53 PM 27.0 °F 21.6 °F 16.0 °F 63% 30.19 in 10.0 mi NNE 4.6 mph - N/A   Overcast
7:53 PM 26.1 °F 20.5 °F 16.0 °F 66% 30.22 in 10.0 mi NNE 4.6 mph - N/A   Overcast
8:53 PM 25.0 °F 19.3 °F 16.0 °F 69% 30.24 in 10.0 mi East 4.6 mph - N/A   Overcast
9:53 PM 25.0 °F 19.3 °F 16.0 °F 69% 30.22 in 10.0 mi NE 4.6 mph - N/A   Overcast
10:53 PM 21.9 °F 13.4 °F 17.1 °F 82% 30.22 in 2.5 mi ENE 6.9 mph - 0.00 in Snow Light Snow
11:04 PM 21.0 °F 11.4 °F 16.0 °F 81% 30.15 in 4.0 mi ENE 8.1 mph - 0.00 in Snow Light Snow
11:53 PM 19.9 °F 13.4 °F 15.1 °F 81% 30.25 in 8.0 mi East 4.6 mph - 0.00 in Snow Light Snow